Glacier Park International Airport
KGPI : now visible

Airfield :











YOU CAN JOIN US ON...

 
LOGIN :

Register | Disclaimer

   EN    FR    IT 

 









Legend :    VFR   Marginal VFR   IFR   Intensive IFR   Very Intensive IFR
Visi :
Ceiling :
>= 8 km
>= 3000ft
5 to 8 km
1000 to 3000 ft
1500m to 5 km
500 to 1000 ft
800 to 1500m
200 to 500 ft
< 800m
< 200 ft
Symbols :   Thunderstorms  Fog  Heavy snow  Heavy precipitations  Wind > 20 kt






- Airport Elevation : 2977 ft
- IATA code : FCA


KGPI - Glacier Park International

CURRENT METAR :
  • 181955Z 24016G24KT 10SM CLR 16/M07 A2987 RMK AO2 PK WND 27031/1924 SLP108 T01561067

EXPIRED METARs :
  • 181855Z 26016G23KT 10SM SCT080 SCT095 17/M04 A2987 RMK AO2 PK WND 27030/1841 SLP107 T01671044
  • 181755Z 24019G29KT 10SM SCT085 17/M05 A2986 RMK AO2 PK WND 23032/1745 SLP105 T01671050 10167 20128 51007

TAF KGPI
Valid from the 18 at 18:00 until the 19 at 18:00 UTC


181727Z 1818/1918 25016G22KT P6SM BKN050
FM190500 27009KT P6SM BKN250
KZLC FIR / North America



MET'MAP, your aeronautical weather chart ! - Copyright ORBIFLY December 2007 - Disclaimer

ORBIFLY MET'MAP TEAM :

Programming & Development : Alexandra Zaïnal
Concept & original design : Baudouin d'Aumeries
Assistance for programming : Marc-Olivier Méhu
Technical & hardware support : Manuel Goepfert

Contact : metmap@orbifly.com




SOURCES & CREDITS :

   NOAA       Earth
Advisory